Probability
0 0 6 13 6 6 3 6 3 0 0 0 0 0 0 0 0 0 0 0 0 0 0 0 0 0 0 0 0 0 0 0 0 0 0 0 0 0 0 0 0 0 0
0 0 0 3 10 6 0 0 0 0 0 0 0 0 0 0 0 0 0 0 0 0 0 0 0 0 0 0 0 0 0 0 0 0 0 0 0 0 0 0 0 0 0
0 0 0 0 0 0 0 0 0 0 0 0 0 0 0 0 0 0 0 0 0 0 0 0 0 0 0 0 0 0 0 0 0 0 0 0 0 0 0 0 0 0 0
0 0 0 0 0 0 0 0 0 0 0 0 0 0 0 0 0 0 0 0 0 0 0 0 0 0 0 0 0 0 0 0 0 0 0 0 0 0 0 0 0 0 0
0 0 0 0 0 0 0 0 0 0 0 0 0 0 0 0 0 0 0 0 0 0 0 0 0 0 0 0 0 0 0 0 0 0 0 0 0 0 0 0 0 0 0
0 0 0 0 0 0 0 0 0 0 0 0 0 0 0 0 0 0 0 0 0 0 0 0 0 0 0 0 0 0 0 0 0 0 0 0 0 0 0 0 0 0 0
0 0 0 0 0 0 0 0 0 0 0 0 0 0 0 0 0 0 0 0 0 0 0 0 0 0 0 0 0 0 0 0 0 0 0 0 0 0 0 0 0 0 0
0 0 0 0 0 0 0 0 0 0 0 0 0 0 0 0 0 0 0 0 0 0 0 0 0 0 0 0 0 0 0 0 0 0 0 0 0 0 0 0 0 0 0
0 0 0 0 0 0 0 0 0 0 0 0 0 0 0 0 0 0 0 0 0 0 0 0 0 0 0 0 0 0 0 0 0 0 0 0 0 0 0 0 0 0 0
0 0 0 0 0 0 0 0 0 0 0 0 0 0 0 0 0 0 0 0 0 0 0 0 0 0 0 0 0 0 0 0 0 0 0 0 0 0 0 0 0 0 0
0 0 0 0 0 0 0 0 0 0 0 0 0 0 0 0 0 0 0 0 0 0 0 0 0 0 0 0 0 0 0 0 0 0 0 0 0 0 0 0 0 0 0
0 0 0 0 0 0 0 0 0 0 0 0 0 0 0 0 0 0 0 0 0 0 0 0 0 0 0 0 0 0 0 0 0 0 0 0 0 0 0 0 0 0 0
0 0 0 0 0 0 0 0 0 0 0 0 0 0 0 0 0 0 0 0 0 0 0 0 0 0 0 0 0 0 0 0 0 0 0 0 0 0 0 0 0 0 0
0 0 0 0 0 0 0 0 0 0 0 0 0 0 0 0 0 0 0 0 0 0 0 0 0 0 0 0 0 0 0 0 0 0 0 0 0 0 0 0 0 0 0
0 0 0 0 0 0 0 0 0 0 0 0 0 0 0 0 0 0 0 0 0 0 0 0 0 0 0 0 0 0 0 0 0 0 0 0 0 0 0 0 0 0 0
0 0 0 0 0 0 0 0 0 0 0 0 0 0 0 0 0 0 0 0 0 0 0 0 0 0 0 0 0 0 0 0 0 0 0 0 0 0 0 0 0 0 0
0 0 0 0 0 0 0 0 0 0 0 0 0 0 0 0 0 0 0 0 0 0 0 0 0 0 0 0 0 0 0 0 0 0 0 0 0 0 0 0 0 0 0
0 0 0 0 0 0 0 0 0 0 0 0 0 0 0 0 0 0 0 0 0 0 0 0 0 0 0 0 0 0 0 0 0 0 0 0 0 0 0 0 0 0 0
0 0 0 0 0 0 0 0 0 0 0 0 0 0 0 0 0 0 0 0 0 0 0 0 0 0 0 0 0 0 0 0 0 0 0 0 0 0 0 0 0 0 0
0 0 0 0 0 0 0 0 0 0 0 0 0 0 0 0 0 0 0 0 0 0 0 0 0 0 0 0 0 0 0 0 0 0 0 0 0 0 0 0 0 0 0
0 0 0 0 0 0 0 0 0 0 0 0 0 0 0 0 0 0 0 0 0 0 0 0 0 0 0 0 0 0 0 0 0 0 0 0 0 0 0 0 0 0 0
0 0 0 0 0 0 0 0 0 0 0 0 0 0 0 0 0 0 0 0 0 0 0 0 0 0 0 0 0 0 0 0 0 0 0 0 0 0 0 0 0 0 0
0 0 0 0 0 0 0 0 0 0 0 0 0 0 0 0 0 0 0 0 0 0 0 0 0 0 0 0 0 0 0 0 0 0 0 0 0 0 0 0 0 0 0
0 0 0 0 0 0 0 0 0 0 0 0 0 0 0 0 0 0 0 0 0 0 0 0 0 0 0 0 0 0 0 0 0 0 0 0 0 0 0 0 0 0 0
0 0 0 0 0 0 0 0 0 0 0 0 0 0 0 0 0 0 0 0 0 0 0 0 0 0 0 0 0 0 0 0 0 0 0 0 0 0 0 0 0 0 0
0 0 0 0 0 0 0 0 0 0 0 0 0 0 0 0 0 0 0 0 0 0 0 0 0 0 0 0 0 0 0 0 0 0 0 0 0 0 0 0 0 0 0
Height
5766 5769 5772 5775 5777 5780 5782 5785 5788 5790 5793 5796 5798 5800 5802 5804 5805 5807 5808 5809 5810 5810 5811 5811 5811 5810 5809 5809 5808 5806 5805 5803 5801 5799 5797 5794 5791 5788 5785 5781 5778 5774 5770
5752 5756 5759 5762 5765 5768 5771 5774 5778 5780 5783 5786 5789 5791 5794 5795 5797 5799 5801 5802 5803 5803 5804 5804 5805 5804 5804 5803 5802 5801 5799 5797 5795 5793 5791 5788 5785 5782 5778 5775 5771 5768 5764
5736 5740 5744 5748 5752 5755 5759 5762 5766 5769 5772 5776 5778 5781 5784 5787 5789 5791 5792 5794 5795 5796 5797 5798 5798 5798 5797 5796 5795 5794 5793 5791 5789 5787 5784 5782 5779 5775 5772 5768 5765 5761 5757
5719 5723 5728 5733 5737 5741 5745 5749 5753 5758 5761 5765 5768 5771 5774 5777 5780 5782 5784 5785 5787 5788 5789 5790 5791 5791 5790 5790 5789 5788 5786 5784 5782 5780 5777 5775 5772 5769 5765 5762 5758 5754 5750
5701 5705 5710 5716 5721 5726 5731 5736 5740 5745 5749 5753 5757 5760 5764 5767 5770 5773 5775 5776 5778 5780 5781 5782 5783 5783 5783 5783 5782 5781 5779 5777 5775 5773 5771 5768 5765 5762 5758 5754 5751 5746 5742
5682 5686 5692 5698 5704 5710 5716 5721 5726 5731 5735 5740 5744 5748 5752 5756 5759 5762 5765 5767 5769 5771 5773 5773 5774 5775 5775 5775 5775 5773 5772 5770 5768 5766 5763 5761 5758 5755 5751 5747 5743 5739 5734
5664 5668 5674 5681 5687 5693 5700 5705 5710 5716 5721 5726 5731 5735 5740 5743 5747 5751 5754 5757 5760 5762 5763 5765 5765 5766 5767 5767 5767 5766 5764 5763 5761 5758 5756 5753 5751 5747 5743 5739 5735 5731 5726
5646 5651 5656 5664 5670 5677 5683 5688 5694 5700 5706 5710 5716 5721 5726 5730 5735 5739 5743 5746 5749 5752 5754 5755 5756 5757 5758 5759 5759 5758 5757 5755 5753 5751 5748 5746 5743 5739 5735 5731 5727 5723 5718
5628 5633 5639 5646 5652 5659 5665 5671 5677 5683 5690 5695 5700 5706 5711 5716 5722 5727 5731 5735 5738 5741 5743 5745 5747 5748 5749 5750 5750 5749 5748 5747 5745 5743 5741 5738 5735 5731 5727 5723 5719 5715 5710
5612 5616 5622 5628 5634 5641 5647 5654 5660 5666 5673 5679 5685 5691 5698 5703 5709 5715 5719 5723 5726 5730 5733 5735 5737 5738 5739 5740 5741 5741 5740 5739 5737 5735 5733 5730 5727 5723 5719 5715 5711 5706 5701
5595 5600 5606 5612 5618 5624 5630 5636 5643 5650 5656 5663 5670 5676 5682 5689 5694 5700 5706 5711 5715 5719 5722 5725 5727 5729 5730 5731 5732 5732 5731 5730 5729 5727 5725 5722 5719 5715 5711 5707 5703 5698 5693
5580 5584 5589 5595 5601 5607 5613 5620 5627 5633 5640 5647 5654 5661 5668 5674 5681 5687 5693 5699 5703 5708 5711 5714 5716 5719 5721 5722 5723 5723 5723 5721 5720 5718 5716 5714 5710 5707 5703 5699 5694 5689 5684
5565 5569 5573 5579 5585 5591 5597 5603 5610 5617 5623 5631 5639 5646 5654 5660 5667 5673 5679 5685 5690 5695 5699 5703 5706 5709 5711 5712 5713 5714 5713 5713 5711 5710 5708 5705 5702 5698 5694 5690 5685 5680 5675
5549 5553 5558 5563 5570 5575 5581 5587 5594 5601 5608 5616 5624 5631 5639 5646 5652 5659 5665 5672 5677 5683 5687 5692 5695 5698 5700 5702 5704 5704 5704 5703 5702 5701 5699 5697 5693 5690 5686 5681 5677 5672 5666
5534 5537 5542 5548 5554 5560 5566 5572 5578 5586 5593 5601 5609 5617 5625 5632 5638 5645 5652 5658 5665 5670 5676 5681 5684 5688 5690 5692 5693 5694 5694 5694 5693 5692 5690 5687 5684 5681 5677 5672 5668 5663 5658
5519 5523 5527 5533 5539 5545 5551 5557 5565 5572 5579 5588 5596 5603 5611 5619 5626 5632 5638 5646 5652 5657 5663 5669 5673 5676 5679 5681 5683 5684 5685 5684 5683 5682 5680 5678 5675 5672 5668 5664 5660 5655 5649
5505 5510 5514 5519 5525 5531 5537 5544 5552 5559 5567 5574 5582 5590 5598 5606 5613 5620 5627 5633 5639 5645 5651 5657 5661 5664 5668 5670 5672 5674 5675 5675 5674 5673 5671 5669 5667 5663 5660 5656 5651 5646 5640
5493 5497 5501 5506 5512 5519 5525 5531 5539 5547 5554 5562 5570 5578 5586 5594 5601 5608 5615 5622 5628 5634 5639 5644 5649 5653 5657 5660 5662 5663 5665 5665 5665 5664 5662 5661 5658 5655 5651 5647 5642 5637 5631
5481 5485 5489 5495 5501 5507 5513 5520 5528 5535 5543 5551 5559 5567 5575 5582 5590 5597 5604 5610 5617 5623 5628 5633 5638 5643 5646 5648 5651 5653 5654 5655 5655 5654 5653 5652 5649 5646 5642 5638 5633 5628 5622
5471 5475 5479 5484 5490 5497 5503 5509 5516 5524 5532 5540 5548 5556 5564 5571 5580 5587 5593 5600 5606 5613 5618 5623 5627 5632 5636 5638 5641 5643 5645 5646 5646 5646 5645 5643 5641 5637 5634 5629 5625 5619 5612
5461 5465 5470 5475 5480 5486 5492 5498 5505 5513 5521 5529 5537 5546 5554 5562 5569 5576 5583 5590 5596 5602 5608 5613 5618 5622 5626 5629 5633 5635 5637 5637 5638 5637 5636 5635 5633 5629 5625 5620 5615 5609 5603
5452 5456 5461 5466 5472 5478 5483 5490 5496 5503 5511 5518 5527 5535 5543 5551 5558 5565 5573 5580 5586 5593 5599 5604 5609 5614 5618 5622 5625 5627 5628 5629 5630 5631 5629 5627 5624 5620 5616 5611 5606 5600 5594
5444 5449 5454 5459 5464 5470 5475 5481 5488 5494 5502 5510 5518 5526 5533 5541 5548 5556 5563 5570 5577 5584 5591 5597 5602 5607 5611 5614 5617 5619 5620 5622 5623 5622 5621 5618 5615 5611 5607 5603 5597 5591 5585
5437 5441 5446 5451 5456 5462 5468 5474 5480 5487 5495 5502 5510 5518 5525 5533 5541 5548 5556 5562 5569 5576 5583 5589 5595 5600 5603 5606 5609 5611 5612 5614 5615 5614 5612 5610 5606 5603 5599 5594 5588 5583 5576
5430 5434 5439 5444 5450 5456 5462 5468 5474 5480 5488 5495 5503 5511 5519 5527 5535 5542 5549 5557 5563 5570 5576 5582 5587 5591 5596 5599 5601 5603 5605 5607 5606 5605 5604 5602 5598 5594 5590 5585 5580 5574 5568
5425 5429 5434 5439 5444 5451 5457 5463 5469 5475 5482 5490 5498 5506 5514 5522 5529 5537 5544 5551 5558 5564 5570 5575 5580 5585 5589 5592 5594 5597 5599 5599 5599 5597 5596 5593 5590 5586 5582 5577 5572 5566 5559
Wind_Speed
56 55 54 53 52 51 50 49 47 46 45 43 42 41 39 38 37 36 34 33 33 32 31 29 29 28 28 28 28 28 28 29 29 30 31 32 32 33 34 34 35 35 36
59 58 57 56 56 54 53 52 50 49 47 46 45 43 42 40 39 38 37 36 34 33 32 31 31 30 30 29 29 29 29 30 30 31 32 33 34 34 35 35 36 36 37
61 61 61 60 58 57 56 55 53 51 50 48 47 46 45 43 41 40 39 38 37 35 34 33 32 32 31 31 31 31 31 31 32 32 33 34 35 35 35 36 37 37 38
64 63 63 63 62 60 59 58 56 54 53 51 50 48 47 46 44 42 41 40 39 37 36 35 34 34 33 33 33 33 33 33 33 33 34 34 35 36 36 37 38 38 39
65 65 65 65 64 62 61 60 59 57 55 54 52 51 50 48 47 45 43 42 41 39 38 37 37 36 35 34 34 35 35 35 35 34 34 35 36 37 37 38 39 39 40
65 65 66 66 66 65 63 62 62 60 59 58 56 55 53 52 49 48 46 45 43 41 40 40 39 38 37 36 36 36 36 36 36 35 35 36 37 37 38 39 39 40 41
64 65 66 66 66 66 65 64 64 63 62 61 59 57 56 54 51 50 49 47 45 44 42 41 40 39 39 38 38 38 37 37 37 36 36 37 38 39 39 39 40 40 41
64 65 65 65 65 66 66 65 65 65 64 63 61 59 58 55 55 52 50 49 48 47 44 43 42 41 40 39 38 39 38 38 38 37 37 37 38 39 40 40 41 41 42
63 64 65 65 65 66 66 67 66 66 65 65 63 62 60 58 55 54 52 51 50 48 46 45 44 42 41 40 39 39 39 38 38 38 38 38 39 39 40 40 41 42 42
62 63 64 65 65 65 66 66 65 66 66 65 64 63 61 59 56 55 54 52 50 49 47 46 45 43 42 41 40 40 40 39 39 39 39 39 39 40 40 41 42 42 43
60 61 62 63 64 64 64 65 65 66 66 66 64 63 62 61 59 57 55 53 51 50 48 47 46 45 43 42 41 40 39 39 39 39 39 40 40 40 41 41 42 43 43
57 58 61 63 62 63 63 64 65 65 66 66 65 63 62 63 60 58 57 54 52 51 49 48 46 45 43 41 40 40 39 39 39 40 40 40 40 41 41 41 42 42 43
57 58 60 62 61 62 63 62 64 63 65 66 64 63 62 62 60 59 58 56 53 52 50 48 46 45 44 42 41 40 40 40 40 40 41 41 41 41 41 41 42 42 43
53 56 58 61 60 59 60 60 61 61 63 64 63 62 62 61 60 57 57 56 54 53 52 49 47 46 45 43 42 41 41 40 40 40 40 40 41 41 41 42 41 42 43
52 55 57 59 58 57 56 58 58 58 60 62 61 61 60 59 58 56 56 55 53 52 52 49 47 46 45 44 42 41 40 40 40 40 40 40 41 40 41 41 41 42 43
51 53 54 55 57 57 55 55 57 57 59 60 59 58 57 56 56 56 55 53 52 51 50 49 48 46 45 44 43 41 41 40 40 41 40 40 39 39 40 40 41 42 43
48 51 51 52 54 55 55 55 55 56 57 58 58 56 55 54 54 54 54 53 51 50 50 49 48 46 45 44 43 42 41 41 41 40 39 38 38 38 39 40 41 42 43
45 47 48 49 51 52 51 52 54 54 55 56 56 55 54 53 52 52 52 50 49 48 49 48 46 45 43 43 42 41 40 40 39 39 38 38 37 38 38 40 41 43 44
41 43 45 47 49 50 49 50 52 52 52 53 54 55 54 53 52 51 51 50 48 47 48 47 44 43 42 41 39 39 38 38 37 37 36 37 37 37 38 40 41 43 45
39 39 42 44 46 46 46 48 49 51 51 52 53 53 54 53 51 51 50 49 48 47 47 46 43 41 39 38 37 36 36 35 35 35 35 36 37 37 39 40 42 44 46
36 35 38 41 42 43 42 43 44 46 48 49 51 51 50 51 50 48 48 47 47 47 46 44 41 39 38 36 34 34 34 33 33 33 34 36 36 37 39 40 42 44 45
34 34 36 37 40 42 42 40 40 42 44 46 48 48 48 49 47 47 46 46 45 44 43 41 39 38 36 35 34 32 31 31 32 33 34 35 36 37 39 40 42 43 44
32 32 35 36 39 41 41 40 38 38 40 44 46 46 46 46 45 46 44 43 41 40 40 37 36 35 34 33 33 31 30 31 32 33 33 34 36 37 38 40 41 42 43
30 31 33 35 36 37 38 39 38 38 37 39 42 43 42 42 43 42 41 40 39 39 39 36 35 34 34 33 32 30 30 31 31 32 32 34 35 36 38 39 39 40 42
29 30 31 32 33 34 35 37 37 37 36 36 39 40 39 40 39 37 37 37 36 37 37 35 34 33 32 32 31 30 30 30 30 31 32 33 34 35 36 37 38 40 42
26 28 28 30 32 32 33 34 35 34 35 36 38 38 38 37 36 36 35 36 35 35 35 35 33 32 31 30 30 29 29 29 30 30 31 33 33 33 35 36 38 40 41
Wind_Direction
249 249 249 249 249 249 249 248 247 248 248 249 250 249 250 252 254 255 257 259 262 263 265 268 270 273 276 279 281 283 285 288 292 295 298 300 302 304 305 305 306 307 307
250 249 248 248 248 248 249 248 248 248 248 248 250 249 249 251 253 254 255 257 260 262 264 266 269 271 275 277 279 281 283 287 290 293 296 298 301 302 303 305 305 306 306
251 249 248 247 247 248 247 247 247 248 248 248 249 250 249 249 251 254 254 256 258 261 263 265 267 270 273 275 277 279 281 284 288 291 294 296 299 300 302 304 304 305 305
251 250 248 247 246 247 247 246 246 247 247 248 249 249 250 249 250 253 254 255 256 259 262 264 266 268 271 274 277 279 281 283 287 290 292 295 298 299 301 302 303 304 304
250 249 247 246 246 246 246 245 245 245 246 247 248 249 250 250 250 251 253 255 256 257 260 262 265 267 269 272 276 279 281 282 285 288 291 294 297 299 300 301 302 303 304
250 248 246 245 244 245 245 246 244 244 245 245 247 248 249 249 249 250 252 254 255 256 259 261 263 266 268 271 274 278 280 283 285 287 290 293 296 298 300 300 301 302 303
250 248 246 244 244 244 244 245 245 243 244 244 245 247 247 248 249 249 250 252 254 255 257 260 262 264 267 270 272 276 278 282 283 285 289 291 295 298 299 300 301 302 304
250 248 246 243 243 243 243 244 244 244 243 243 244 245 246 246 248 249 250 251 252 254 255 257 259 262 265 268 271 274 277 280 283 284 287 291 295 297 298 299 300 301 303
249 247 246 243 243 243 243 243 243 243 242 242 243 244 245 246 246 248 249 249 251 252 254 256 258 260 263 266 269 272 276 279 282 284 286 291 294 297 298 299 300 301 303
248 246 244 243 243 242 243 241 241 242 242 242 242 242 244 246 246 247 248 248 248 251 253 255 257 259 262 264 267 271 274 277 280 283 285 290 293 296 298 299 300 301 303
248 246 244 243 242 242 243 241 241 242 242 241 241 241 243 245 244 246 246 247 248 250 251 253 255 258 261 264 266 269 272 275 278 282 285 288 292 295 297 298 300 301 303
248 246 244 243 242 242 243 242 241 241 241 239 239 240 242 243 243 244 245 246 247 248 249 252 254 258 260 263 265 268 271 274 278 282 284 287 291 294 296 298 300 301 303
249 246 244 243 243 243 242 242 241 240 240 239 239 239 241 241 242 243 244 244 245 246 247 250 253 256 258 261 264 266 269 273 278 282 283 287 291 293 296 298 300 301 303
250 247 245 243 242 242 241 241 239 240 239 238 237 238 239 240 240 241 243 243 245 246 247 249 252 254 257 259 262 265 269 273 277 280 282 287 290 292 295 298 300 301 303
250 247 244 240 240 240 240 238 238 238 238 237 236 237 238 238 238 240 241 242 244 246 246 248 251 252 255 257 261 263 268 272 277 279 282 286 289 291 294 296 299 301 303
248 245 242 240 240 239 239 238 237 238 237 235 235 235 236 236 237 238 240 241 242 244 245 247 249 250 253 256 259 263 267 271 276 279 282 284 287 290 294 296 299 301 304
246 243 241 239 238 237 238 238 237 238 236 235 234 234 234 235 236 237 237 238 240 243 244 246 248 250 252 254 258 262 266 271 275 278 280 283 287 291 294 296 299 302 304
245 242 239 237 236 235 235 236 237 237 237 235 234 233 232 233 235 236 237 238 240 242 243 244 247 248 250 253 256 260 266 270 273 276 279 283 287 290 293 296 299 302 305
243 240 236 236 235 234 235 236 236 236 235 235 234 233 233 234 235 235 236 237 238 239 242 243 246 247 249 252 255 260 265 268 272 275 278 283 286 290 293 297 300 302 305
242 239 235 233 233 234 234 234 235 234 234 233 232 233 234 234 235 235 236 236 237 238 240 240 243 245 248 251 254 259 263 268 270 274 279 283 286 290 294 298 301 304 306
240 238 234 233 232 232 232 235 235 232 232 232 231 231 232 232 231 232 233 234 234 237 239 239 240 243 246 247 252 258 262 265 268 274 279 283 287 291 295 298 301 304 307
239 235 233 233 232 232 232 232 231 231 231 230 228 229 229 228 226 229 228 230 231 235 237 236 237 239 242 245 250 255 260 263 268 274 280 284 289 293 296 299 303 305 308
236 231 233 233 233 232 231 228 227 229 228 227 226 226 225 224 224 224 225 226 228 232 232 233 235 237 241 245 249 255 259 262 268 274 279 285 289 293 297 301 303 306 309
237 234 233 233 231 228 227 226 228 227 224 221 220 220 220 220 220 221 223 225 226 227 228 230 233 234 239 244 249 253 256 261 269 274 280 286 290 294 298 302 304 307 310
236 231 229 228 225 224 224 223 225 225 221 217 215 215 216 216 216 219 221 222 223 224 225 227 230 234 240 246 249 251 255 263 271 276 282 287 291 295 299 303 306 309 311
229 223 222 224 223 223 220 221 223 223 220 216 214 212 212 214 215 218 220 220 220 222 223 226 231 236 241 245 247 250 258 265 272 277 284 289 292 297 301 304 307 310 312